Showing default

OPS 3367 B, 735

Orbit data source: Space-Track

OPS 3367 B, 735 is an American payload satellite in SSO that was launched on Sun, 19 Jan 1964 UTC via a THOR SLV-2 AGENA D launch vehicle from the Air Force Western Test Range (AFWTR). Payload-class satellites include a variety of spacecraft equipped with specific instruments for various scientific and technological missions. These include communications satellites like Starlink; space stations such as the ISS; scientific satellites like the Hubble; Earth observation satellites from companies like Planet Labs, Umbra, and HawkEye 360; GPS; miniature CubeSats for education and research; and military/defense satellites.

Loading next visibility...
Identifier
735, 1964-002C
Orbit
SSO
Country
Flag of USUS
Related business
Manufacturer
RCA/East Windsor
Mission
Defense Weather
Bus & Motor
P35, Unknown motor
Mass
50 kg wet, 50 kg dry
Launch date (UTC)
1964-01-19 (62 years ago)
Launch vehicle
THOR SLV-2 AGENA D
Launch site
Air Force Western Test Range (AFWTR)
Object type
Payload
Rocket body
Debris
Shape & HBR
Cyl, 0.3 m
Radar Cross Section
0.377 m², Medium (>0.1 m² and < 1m²)

Expand to show TLE details & history
Last TLE update: 11 hours ago

TLE from 11 hours ago
0 OPS 3367 B
1 00735U 64002C   25258.56144501  .00000082  00000-0  51605-4 0  9996
2 00735  98.9753 170.3532 0017007  25.8785 334.3242 14.28474301207508
Epoch: 2025-09-15T13:28Z
TLE epoch observation values (Epoch: 2025-09-15T13:28:28.848Z)
Latitude
-0.00008°
Longitude
-26.53132°
Altitude
788.757 km
Speed
7.465 km/s
True Right ascension
11h 21m 24s
True Declination
0° 00' 00"
Sunlit
Object was in daylight at epoch
Visualization orbit readout
Latitude
Unknown
Longitude
Unknown
Altitude
Unknown
Speed
Unknown
Apparent Right ascension
Unknown
Apparent Declination
Unknown
Sunlit
N/A
Visualization observer readout
Local Sidereal Time
17:14:20
Azimuth
Unknown
Elevation
Unknown
Doppler factor
Unknown
Orbital elements
Apogee altitude
806.193 km
Perigee altitude
781.798 km
Semi-major axis
7,172.132 km
Eccentricity
0.0017
Inclination
98.9753°
RAAN
170.3532°
Arg. of periapsis
25.8785°
True anomaly
334.2396°
Mean anomaly
334.3242°
Eccentric anomaly
334.28192°
Mean motion
3.57331 °/min
Orbital period
100.75 mins
BSTAR
0.000051605
Loading maneuver chart data...
Computing Atmospheric mass density...
Loading historical data...
Loading historical data...
Loading historical data...
Loading historical data...
Loading historical data...
Loading historical data...
Loading historical data...
Other satellites on launch #2 in the year 1964 (1964-01-19 UTC)

Documentation

Showing up to 5 results
|